Regional Weather Roundup
Issued by NWS Charleston, SC

Current Version | Previous Version | Text Only | Print | Product List | Glossary Off
Versions: 1 2 3 4 5 6 7 8 9 10 11 12 13 14 15 16 17 18 19 20 21 22 23 24 25 26 27 28 29 30 31 32 33 34 35 36 37 38 39 40 41 42 43 44 45 46 47 48 49 50

000
ASUS42 KCHS 200510
RWRCHS
REGIONAL WEATHER ROUNDUP
NATIONAL WEATHER SERVICE CHARLESTON SC
100 AM EDT SAT SEP 20 2014

NOTE: "FAIR" INDICATES FEW OR NO CLOUDS BELOW 12,000 FEET WITH NO
SIGNIFICANT WEATHER AND/OR OBSTRUCTIONS TO VISIBILITY.

NOT ALL STATIONS ARE QUALITY CONTROLLED BY THE NATIONAL
WEATHER SERVICE. USE DATA WITH CAUTION...ESPECIALLY
DEWPOINT OBSERVATIONS.

SCZ027-030-031-034>040-042>050-200600-
...SOUTH CAROLINA...

CITY           SKY/WX    TMP DP  RH WIND       PRES   REMARKS
N CHARLESTON   LGT RAIN  72  69  90 NE8       30.10S
WATERFRONT PRK   N/A     75 N/A N/A NE13        N/A
FORT JOHNSON   NOT AVBL
MOUNT PLEASANT FAIR      72  72 100 E6        30.10S
JOHNS ISLAND   LGT RAIN  72  72 100 CALM      30.09F
PINOPOLIS        N/A     73  70  88 E14       30.05F
MONCKS CORNER    N/A     72  70  94 NE5       30.12S
SUMMERVILLE    FAIR      70  70 100 NE5       30.12F
BEAUFORT MCAS  LGT RAIN  72  67  84 NW10      30.08F
BEAUFORT ARPT  LGT RAIN  72  72 100 NE10G17   30.08S
HILTON HEAD IS DRIZZLE   72  72 100 N10G21    30.08F
GEORGETOWN     NOT AVBL
WALTERBORO     MOCLDY    70 N/A N/A NE6       30.11F
ORANGEBURG     PTCLDY    70  65  84 NE7       30.14R
BARNWELL       FAIR      68  66  94 NE6       30.13F
AIKEN          FAIR      68  68 100 NE8       30.18S
MANNING        FAIR      70 N/A N/A NE5       30.13S
KINGSTREE      NOT AVBL
COLUMBIA       CLEAR     71  64  78 NE7       30.15S
SUMTER         CLEAR     66  62  87 NE8       30.15S
FLORENCE       CLEAR     67  61  81 NE8       30.17S
MYRTLE BEACH   CLOUDY    73  64  73 NE12      30.13S
N MYRTLE BEACH MOCLDY    71  64  78 NE12      30.13F

$$

GAZ063-065-086>088-099>101-113>116-118-119-134-136>141-150-200600-
...GEORGIA...

CITY           SKY/WX    TMP DP  RH WIND       PRES   REMARKS
SAVANNAH ARPT  PTCLDY    72  68  87 NE8       30.07S
HUNTER AAF     LGT RAIN  72  70  94 NE12      30.04F
FORT STEWART   PTCLDY    71  68  89 NE8       30.04F
STATESBORO     NOT AVBL
SYLVANIA       CLEAR     71  69  96 NE6       30.11S
CLAXTON        FAIR      70  70 100 NE5       30.07F
THOMSON        PTCLDY    69  69 100 CALM      30.19S
AUGUSTA-BUSH   CLEAR     69  66  90 NE6       30.13S
AUGUSTA-DANIEL CLEAR     71  66  84 NE12      30.15S
SWAINSBORO     FAIR      70  70 100 NE5       30.10F
VIDALIA        CLEAR     68  68 100 NE7       30.08S
ALMA           PTCLDY    70  67  90 VRB3      30.04F
WAYCROSS       PTCLDY    73  72  95 NE5       30.03F
JESUP          FAIR      72  70  94 NE3       30.04F
BRUNSWICK      CLOUDY    72  70  94 N7        30.03S
SAINT SIMONS   CLOUDY    78  70  76 E12       30.01F

$$

SCZ027-028-034-036>038-045-046-048>050-GAZ119-141-200600-
...LAKE AND SUPPLEMENTAL COASTAL OBSERVATIONS...

STATION/POSITION TIME  TEMP    WIND        PRES    WAVE   SWELL
                       AIR SEA DIR/SP/G            HT/PER HT/PER/DIR
                 (UTC) (F)     (DEG/KT/KT) (MB)    (FT/S) (FT/S/D)
UPR LAKE MARION  NOT AVBL
WINYAH BAY       0400   75     110/ 16     1020.0S
LAKE MURRAY      0400   69      40/  4/  5 1021.0S
ACE BASIN NERRS  0400   70      30/  3     1019.0S
FORT PULASKI     0500   75                 1018.0F
SAPELO ISLAND    0400   78      60/  7     1017.0S

$$

ANZ835-935-AMZ111-154-330-350-352-354-374-450-454-472-200600-
...C-MAN AND BUOY OBSERVATIONS...

STATION/POSITION TIME  TEMP    WIND        PRES    WAVE   SWELL
                       AIR SEA DIR/SP/G            HT/PER HT/PER/DIR
                 (UTC) (F)     (DEG/KT/KT) (MB)    (FT/S) (FT/S/D)
FOLLY BEACH CMAN 0500   77      90/ 21/ 25 1019.1F
BUOY 41004       0500   76 82   70/ 21/ 25 1017.6R   8/ 6   2/11
BUOY 41008       0500   81 84   80/ 17/ 19 1016.2F   5/ 6   2/ 60/ 8
5E ST. MARYS GA  0500      84                N/A     4/ 6
FRYING PAN BUOY  NOT AVBL
BUOY 41025       0500   76      50/ 17/ 23 1020.9F   6/ 7   2/ 50/ 9
CAPE LOOKOUT NC  0500   74      40/ 19/ 22 1021.2F
BUOY 41002       0446   79 82   90/ 21/ 27 1017.7F   8/ 8
BUOY 41010       0500   80 85   40/ 17/ 21 1013.6F   4/ 5   2/100/13
BUOY 41012       NOT AVBL
ST AUGUSTINE FL  0500   78      90/  7/  8 1016.0F
CAPERS NEARSHORE 0400   78      90/ 21/ 27   N/A
FRIPP NEARSHORE  NOT AVBL


$$


USA.gov is the U.S. government's official web portal to all federal, state and local government web resources and services.